Regional Weather Roundup
Issued by NWS

Home | Current Version | Previous Version | Graphics & Text | Print | Product List | Glossary On
Versions: 1 2 3 4 5 6 7 8 9 10 11 12 13 14 15 16 17 18 19 20 21 22 23 24 25 26 27 28 29 30 31 32 33 34 35 36 37 38 39 40 41 42 43 44 45 46 47 48 49 50
000
ASUS43 KOAX 221210
RWRNE

WEATHER ROUNDUP FOR NEBRASKA
NATIONAL WEATHER SERVICE OMAHA NE
700 AM CDT FRI MAY 22 2015

NOTES: SATELLITE DATA IS BEING USED TO AUGMENT CLOUD COVER ABOVE
       12000 FEET.
       "FAIR" INDICATES FEW OR NO CLOUDS BELOW 12,000 FEET WITH NO
       SIGNIFICANT WEATHER AND/OR OBSTRUCTIONS TO VISIBILITY.

  * THESE STATIONS DO NOT REPORT WEATHER SUCH AS RAIN...SNOW OR FOG.

NEZ001>004-019>022-054>056-221300-
NEBRASKA PANHANDLE

CITY           SKY/WX    TMP DP  RH WIND       PRES   REMARKS
SCOTTSBLUFF    CLOUDY    49  45  86 E14       30.07R
6HR MIN TEMP:  49; 6HR MAX TEMP:  52;

ALLIANCE       CLOUDY    48  44  86 SE10      30.09R
6HR MIN TEMP:  48; 6HR MAX TEMP:  51;

CHADRON        CLOUDY    51  44  77 SE14      30.08S
6HR MIN TEMP:  51; 6HR MAX TEMP:  54;

KIMBALL          N/A    N/A N/A N/A MISG        N/A
SIDNEY         CLOUDY    47  43  86 SE9       30.08S
6HR MIN TEMP:  46; 6HR MAX TEMP:  49;

$$

NEZ057>060-069>072-079>082-221300-
SOUTHWEST NEBRASKA

CITY           SKY/WX    TMP DP  RH WIND       PRES   REMARKS
NORTH PLATTE   MOCLDY    44  41  89 E8        30.15R
6HR MIN TEMP:  43; 6HR MAX TEMP:  53;

IMPERIAL       LGT RAIN  48  43  82 SE12      30.12R
6HR MIN TEMP:  47; 6HR MAX TEMP:  51; 6HR PCP: TRACE;

LEXINGTON      CLOUDY    45  43  93 E3        30.17S
MCCOOK         CLOUDY    48  44  86 SE5       30.14S
6HR MIN TEMP:  47; 6HR MAX TEMP:  49;

OGALLALA       CLOUDY    47  45  90 SE8       30.13R
$$

NEZ005>010-023>029-035>040-094-221300-
NORTH CENTRAL NEBRASKA

CITY           SKY/WX    TMP DP  RH WIND       PRES   REMARKS
VALENTINE      MOCLDY    44  39  82 E3        30.15S
6HR MIN TEMP:  44; 6HR MAX TEMP:  50;

AINSWORTH      MOCLDY    42  39  88 S3        30.16S
BROKEN BOW     MOCLDY    41  39  93 CALM      30.17S
6HR MIN TEMP:  40; 6HR MAX TEMP:  44;

O`NEILL        MOCLDY    44  38  79 CALM      30.18F
ORD            CLOUDY    38  37  97 CALM      30.18R
6HR MIN TEMP:  36; 6HR MAX TEMP:  42;

THEDFORD       CLOUDY    41  40  94 CALM      30.16S
$$

NEZ041-046>049-061>064-073>077-083>087-221300-
SOUTH CENTRAL NEBRASKA

CITY           SKY/WX    TMP DP  RH WIND       PRES   REMARKS
GRAND ISLAND   MOCLDY    44  42  93 CALM      30.20R
6HR MIN TEMP:  42; 6HR MAX TEMP:  51;

AURORA         MOCLDY    46  43  87 CALM      30.19S
HASTINGS       CLOUDY    46  42  86 CALM      30.18S
6HR MIN TEMP:  44; 6HR MAX TEMP:  52;

HEBRON         CLOUDY    46  44  91 CALM      30.20R
HOLDREGE       CLOUDY    46  42  86 SE6       30.18R
KEARNEY *      CLOUDY    45  39  81 CALM      30.18S
YORK           MOCLDY    45  41  87 CALM      30.21R FOG
$$

NEZ011>018-030>034-042>045-221300-
NORTHEAST NEBRASKA

CITY           SKY/WX    TMP DP  RH WIND       PRES   REMARKS
NORFOLK        PTCLDY    46  40  79 CALM      30.19F
6HR MIN TEMP:  39; 6HR MAX TEMP:  52;

ALBION         MOCLDY    41  37  84 CALM      30.20R
BLAIR          PTCLDY    51  40  66 CALM      30.20F
COLUMBUS *     MOCLDY    43  36  75 CALM      30.23S
FREMONT        MOCLDY    48  43  85 CALM      30.21S
TEKAMAH        CLEAR     48  42  80 CALM      30.21S
6HR MIN TEMP:  45; 6HR MAX TEMP:  56;

WAYNE          CLEAR     42  39  89 CALM      30.21S
$$

NEZ050>053-065>068-078-088>093-221300-
SOUTHEAST NEBRASKA

CITY           SKY/WX    TMP DP  RH WIND       PRES   REMARKS
LINCOLN        MOCLDY    47  43  86 CALM      30.22S
6HR MIN TEMP:  46; 6HR MAX TEMP:  56;

OMAHA EPPLEY   MOCLDY    50  44  80 CALM      30.21S
6HR MIN TEMP:  47; 6HR MAX TEMP:  60;

BEATRICE       MOCLDY    46  44  92 CALM      30.20S
FALLS CITY     PTCLDY    48  45  89 E5        30.21S
6HR MIN TEMP:  46; 6HR MAX TEMP:  55;

NEBRASKA CITY  PTCLDY    49  40  69 CALM      30.22S
PLATTSMOUTH    PTCLDY    50  41  70 CALM      30.21S
$$

NEZ044-045-051>053-067-221300-
OMAHA AREA

CITY           SKY/WX    TMP DP  RH WIND       PRES   REMARKS
OMAHA EPPLEY   MOCLDY    50  44  80 CALM      30.21S
6HR MIN TEMP:  47; 6HR MAX TEMP:  60;

BLAIR          PTCLDY    51  40  66 CALM      30.20F
FREMONT        MOCLDY    48  43  85 CALM      30.21S
MILLARD        PTCLDY    47  44  88 CALM      30.21S
OFFUTT AFB     PTCLDY    46  43  91 CALM      30.20S
PLATTSMOUTH    PTCLDY    50  41  70 CALM      30.21S
WAHOO          FAIR      47  43  87 CALM      30.21S
$$



USA.gov is the U.S. government's official web portal to all federal, state and local government web resources and services.